Portada
METAR-TAF:

METAR-TAF

Aeropuertos :

Teruel, España

Aeródromo de Teruel

latitud: 40-24-43N, longitud: 01-13-03W, altitud: 1030 m

Observación

El informe se hizo hace 19 minutos, a las 02:30 UTC
Viento 7 kt del norte-noroeste
Temperatura 0°C
Humedad 86%
Presión 1024 hPa
Visibilidad 10 km o más
sin nubes por debajo de 1500 m y sin presencia de cumulonimbus.

METAR: LETL 180230Z AUTO 33007KT CAVOK 00/M02 Q1024

Hora: 03:49 (02:49 UTC)


TAF: falta

Observaciones y pronósticos meteorológicos de más de 4000 aeropuertos (mensajes METAR y TAF).

Los puntos amarillos y rojos representan las estaciones disponibles.

Ponga el ratón en el punto deseado para ver el nombre de la estación.

Haga clic para ver las observaciones y los pronósticos meteorológicos.

Para cambiar el mapa : haga clic en los botones verdes con una cruz de color negro para hacer un zoom, en el botón verde con un guión para alejar o en las flechas verdes para mapas adyacentes.


METAR-TAF: